"Pseudo-MPEC" for P11oUTn

Created 2021 Dec 2 2:07:30 UT using Find_Orb

Click here for an explanation of pseudo-MPECs

 
 Astrometry: 
     P11oUTn  C2021 11 11D%Astrometry)DRY@3hDh_Y?#redacted;_-l@3.],llclick4O$F51
     P11oUTn  C2021 11 11Ss)6=5o8H]\)ubER!,Tm'AVd(VQZI%=here`vRU4UmJ^sFr,G%aoF51
     P11oUTn  C2021 11 11,\%Jd'Z'2n*71j4=rm'V@[8g$qNsWeforx'OYa0kUexplanationF51

Station data:
(F51) Pan-STARRS 1, Haleakala  (N20.707235 W156.255910)  US/Hawaii.
   Observers N. Primak, A. Schultz, S. Watters, J. Thiel, T. Goggia. Measurer
   PS1 Science Consortium. 1.8-m Ritchey-Chrétien + CCD.

Orbital elements:  P11oUTn
   Perihelion 2021 Dec 27.489884 +/- 1491 TT = 11:45:26 (JD 2459575.989884)
Epoch 2021 Nov 12.0 TT = JDT 2459530.5   Earth MOID: 0.4214   Ma: 0.0641
M 346.31542310 +/- 50.075648        (J2000 ecliptic)          AutoNEOCP
n   0.30082681 +/- 0.148154         Peri.  329.23096 +/- 92.688872
a   2.20592980 +/- 0.724249         Node   114.86789 +/- 32.597739
e   0.3657746 +/- 0.224864          Incl.    7.29167 +/- 38.389622
P   3.28                   H 22.4   G  0.15   U 11.6  SR
q 1.39905652 +/- 2.86715    Q 3.01280309 +/- 7391
From 3 observations 2021 Nov. 11 (32.4 min); mean residual 0".03
Residuals in arcseconds: 
211111 F51  .02-  .01+    211111 F51  .05+  .01-    211111 F51  .03-  .01+    

Ephemerides (geocentric):
Date (UTC) HH   RA              Dec         delta   r     elong  mag " sig PA
---- -- -- --  -------------   -----------  ------ ------ -----  --- ---- ---
2021 12 02 02  04 05 17.424   +03 06 33.30  .44933 1.4167 160.1 22.2  25d 179
2021 12 02 03  04 05 16.166   +03 06 57.85  .44931 1.4166 160.0 22.2  25d 179
2021 12 02 04  04 05 14.909   +03 07 22.46  .44929 1.4166 160.0 22.2  25d 179
2021 12 02 05  04 05 13.653   +03 07 47.11  .44927 1.4165 160.0 22.2  25d 179
2021 12 02 06  04 05 12.399   +03 08 11.83  .44925 1.4165 160.0 22.2  25d 179
2021 12 02 07  04 05 11.145   +03 08 36.59  .44922 1.4164 160.0 22.2  25d 179
2021 12 02 08  04 05 09.892   +03 09 01.42  .44920 1.4164 160.0 22.2  25d 179
2021 12 02 09  04 05 08.640   +03 09 26.29  .44918 1.4163 159.9 22.2  25d 179
2021 12 02 10  04 05 07.390   +03 09 51.22  .44916 1.4162 159.9 22.2  25d 179
2021 12 02 11  04 05 06.140   +03 10 16.21  .44914 1.4162 159.9 22.2  25d 179
2021 12 02 12  04 05 04.892   +03 10 41.24  .44912 1.4161 159.9 22.2  25d 179
2021 12 02 13  04 05 03.645   +03 11 06.34  .44910 1.4161 159.9 22.2  25d 179
2021 12 02 14  04 05 02.399   +03 11 31.49  .44908 1.4160 159.9 22.2  25d 179
2021 12 02 15  04 05 01.154   +03 11 56.69  .44906 1.4160 159.8 22.2  25d 179
2021 12 02 16  04 04 59.910   +03 12 21.94  .44905 1.4159 159.8 22.2  25d 179
2021 12 02 17  04 04 58.667   +03 12 47.25  .44903 1.4158 159.8 22.2  25d 179
2021 12 02 18  04 04 57.425   +03 13 12.62  .44901 1.4158 159.8 22.2  25d 179
2021 12 02 19  04 04 56.185   +03 13 38.04  .44899 1.4157 159.8 22.2  25d 179
2021 12 02 20  04 04 54.946   +03 14 03.51  .44897 1.4157 159.8 22.2  25d 179
2021 12 02 21  04 04 53.708   +03 14 29.03  .44896 1.4156 159.7 22.2  25d 179
2021 12 02 22  04 04 52.471   +03 14 54.62  .44894 1.4156 159.7 22.2  25d 179
2021 12 02 23  04 04 51.236   +03 15 20.25  .44892 1.4155 159.7 22.2  25d 179
2021 12 03 00  04 04 50.001   +03 15 45.94  .44891 1.4155 159.7 22.2  25d 179
2021 12 03 01  04 04 48.768   +03 16 11.68  .44889 1.4154 159.7 22.2  25d 179
2021 12 03 02  04 04 47.536   +03 16 37.48  .44887 1.4153 159.7 22.2  25d 179
2021 12 03 03  04 04 46.306   +03 17 03.33  .44886 1.4153 159.6 22.2  25d 179
2021 12 03 04  04 04 45.077   +03 17 29.24  .44884 1.4152 159.6 22.2  25d 179
2021 12 03 05  04 04 43.849   +03 17 55.20  .44883 1.4152 159.6 22.2  25d 179
2021 12 03 06  04 04 42.622   +03 18 21.21  .44881 1.4151 159.6 22.2  25d 179
2021 12 03 07  04 04 41.397   +03 18 47.28  .44880 1.4151 159.6 22.2  25d 179
2021 12 03 08  04 04 40.173   +03 19 13.40  .44878 1.4150 159.6 22.2  25d 179
2021 12 03 09  04 04 38.950   +03 19 39.57  .44877 1.4150 159.5 22.2  25d 179
2021 12 03 10  04 04 37.729   +03 20 05.80  .44875 1.4149 159.5 22.2  25d 179
2021 12 03 11  04 04 36.509   +03 20 32.08  .44874 1.4149 159.5 22.2  25d 179
2021 12 03 12  04 04 35.290   +03 20 58.42  .44873 1.4148 159.5 22.2  25d 179
2021 12 03 13  04 04 34.073   +03 21 24.81  .44871 1.4147 159.5 22.2  25d 179
2021 12 03 14  04 04 32.857   +03 21 51.25  .44870 1.4147 159.4 22.2  25d 179
2021 12 03 15  04 04 31.642   +03 22 17.75  .44869 1.4146 159.4 22.2  25d 179
2021 12 03 16  04 04 30.429   +03 22 44.30  .44867 1.4146 159.4 22.2  25d 179
2021 12 03 17  04 04 29.218   +03 23 10.90  .44866 1.4145 159.4 22.2  25d 179
2021 12 03 18  04 04 28.008   +03 23 37.56  .44865 1.4145 159.4 22.2  25d 179
2021 12 03 19  04 04 26.799   +03 24 04.27  .44864 1.4144 159.4 22.2  25d 179
2021 12 03 20  04 04 25.592   +03 24 31.04  .44863 1.4144 159.3 22.2  25d 179
2021 12 03 21  04 04 24.386   +03 24 57.86  .44862 1.4143 159.3 22.2  25d 179
2021 12 03 22  04 04 23.181   +03 25 24.73  .44860 1.4143 159.3 22.2  25d 179
2021 12 03 23  04 04 21.979   +03 25 51.66  .44859 1.4142 159.3 22.2  25d 179
2021 12 04 00  04 04 20.777   +03 26 18.64  .44858 1.4142 159.3 22.2  25d 179
2021 12 04 01  04 04 19.577   +03 26 45.67  .44857 1.4141 159.2 22.2  25d 179